OE5HCE Weather Reports


time (UTC)temp
F
wind
direction
speed
knots
gust
knots
rain 1hr
in
rain 24hr
in
rain mn
in
humidity
%
barometer
mb
20260507170056 60 249 0.0 0.0 0.00 0.02 0.02 67 1014.7
20260507164605 59 221 0.0 0.0 0.00 0.02 0.02 68 1014.6
20260507163059 59 240 0.0 0.0 0.00 0.02 0.02 70 1014.6
20260507161555 60 267 0.0 0.0 0.00 0.02 0.02 70 1014.6
20260507160054 58 213 0.0 0.0 0.01 0.02 0.02 76 1014.7
20260507154554 57 360 0.0 0.0 0.02 0.02 0.02 77 1014.7
20260507153051 57 267 0.0 0.0 0.02 0.02 0.02 76 1014.6
20260507151550 57 252 0.0 0.0 0.02 0.02 0.02 73 1014.7
20260507150056 60 311 0.0 0.0 0.01 0.01 0.01 65 1014.6
20260507144547 61 246 0.0 0.0 0.00 0.00 0.00 60 1014.2
20260507143049 61 242 0.0 0.0 0.00 0.00 0.00 59 1014.2
20260507141551 61 254 0.0 0.0 0.00 0.00 0.00 58 1014.3
20260507140047 61 260 0.0 0.0 0.00 0.00 0.00 57 1014.2
20260507134546 62 240 0.0 0.0 0.00 0.00 0.00 56 1014.2
20260507133045 62 266 0.0 0.0 0.00 0.00 0.00 55 1014.1
20260507131608 62 240 0.0 0.0 0.00 0.00 0.00 53 1014.1
20260507130044 63 221 0.0 0.0 0.00 0.00 0.00 54 1014.0
20260507124543 64 219 0.0 0.0 0.00 0.00 0.00 52 1013.9
20260507123043 64 263 0.0 0.0 0.00 0.00 0.00 54 1013.8
20260507121543 64 304 0.0 0.0 0.00 0.00 0.00 53 1013.7
20260507120042 64 221 0.0 0.0 0.00 0.00 0.00 55 1013.7
20260507114540 63 301 0.0 0.0 0.00 0.00 0.00 56 1013.9
20260507113036 63 232 0.0 0.0 0.00 0.00 0.00 56 1013.9
20260507111534 61 246 0.0 0.0 0.00 0.00 0.00 59 1014.1
20260507110034 61 240 0.0 0.0 0.00 0.00 0.00 59 1014.1
20260507104533 61 286 0.0 0.0 0.00 0.00 0.00 59 1014.2
20260507103034 62 242 0.0 0.0 0.00 0.00 0.00 56 1014.3
20260507101532 62 223 0.0 0.0 0.00 0.00 0.00 58 1014.3
20260507100034 62 247 0.0 0.0 0.00 0.00 0.00 57 1014.3
20260507094530 61 249 0.0 0.0 0.00 0.00 0.00 58 1014.4
20260507093027 61 229 0.0 0.0 0.00 0.00 0.00 59 1014.4
20260507091527 61 249 0.0 0.0 0.00 0.00 0.00 59 1014.2
20260507090023 61 178 0.0 0.0 0.00 0.00 0.00 61 1014.2
20260507084520 60 241 0.0 0.0 0.00 0.00 0.00 61 1014.0
20260507083018 60 311 0.0 0.0 0.00 0.00 0.00 61 1014.0
20260507081516 60 232 0.0 0.0 0.00 0.00 0.00 61 1013.9
20260507080013 59 224 0.0 0.0 0.00 0.00 0.00 62 1013.8
20260507074511 59 255 0.0 0.0 0.00 0.00 0.00 65 1013.8
20260507073007 58 277 0.0 0.0 0.00 0.00 0.00 65 1013.9
20260507071514 57 290 0.0 0.0 0.00 0.00 0.00 65 1013.8
20260507070009 57 234 0.0 0.0 0.00 0.00 0.00 65 1013.8
20260507064503 57 240 0.0 0.0 0.00 0.00 0.00 64 1013.5
20260507063101 56 304 0.0 0.0 0.00 0.00 0.00 67 1013.5
20260507061600 56 240 0.0 0.0 0.00 0.00 0.00 67 1013.5
20260507060057 56 298 0.0 0.0 0.00 0.00 0.00 67 1013.4
20260507054552 56 286 0.0 0.0 0.00 0.00 0.00 68 1013.2
20260507053115 54 242 0.0 0.0 0.00 0.00 0.00 70 1013.2
20260507051546 54 245 0.0 0.0 0.00 0.00 0.00 71 1013.0
20260507050045 53 248 0.0 0.0 0.00 0.00 0.00 72 1012.8
20260507044538 53 257 0.0 0.0 0.00 0.00 0.00 72 1012.7
20260507043037 52 261 0.0 0.0 0.00 0.00 0.00 73 1012.5
20260507041534 52 240 0.0 0.0 0.00 0.00 0.00 74 1012.3
20260507040031 52 229 0.0 0.0 0.00 0.00 0.00 74 1012.2
20260507034536 52 248 0.0 0.0 0.00 0.00 0.00 74 1012.1
20260507033038 52 267 0.0 0.0 0.00 0.00 0.00 75 1011.8
20260507031525 52 249 0.0 0.0 0.00 0.00 0.00 76 1011.7
20260507030027 52 248 0.0 0.0 0.00 0.00 0.00 76 1011.8
20260507024521 53 227 0.0 0.0 0.00 0.00 0.00 76 1011.7
20260507023025 53 255 0.0 0.0 0.00 0.00 0.00 74 1011.6
20260507021518 54 259 0.0 0.0 0.00 0.00 0.00 74 1011.6
20260507020022 54 277 0.0 0.0 0.00 0.00 0.00 73 1011.5
20260507014516 54 261 0.0 0.0 0.00 0.00 0.00 73 1011.4
20260507013013 54 263 0.0 0.0 0.00 0.00 0.00 73 1011.3
20260507011511 54 257 0.0 0.0 0.00 0.00 0.00 72 1011.3
20260507010018 55 274 0.0 0.0 0.00 0.00 0.00 71 1011.2
20260507004505 55 229 0.0 0.0 0.00 0.00 0.00 70 1011.2
20260507003002 55 248 0.0 0.0 0.00 0.00 0.00 70 1011.1
20260507001558 55 240 0.0 0.0 0.00 0.00 0.00 70 1011.0
20260507000054 55 240 0.0 0.0 0.00 0.00 0.00 71 1010.9
20260506234548 54 252 0.0 0.0 0.00 0.00 0.00 72 1011.0
20260506233047 54 279 0.0 0.0 0.00 0.00 0.00 73 1010.9
20260506231543 54 257 0.0 0.0 0.00 0.00 0.00 73 1010.9
20260506230041 54 234 0.0 0.0 0.00 0.00 0.00 74 1010.8
20260506224603 54 248 0.0 0.0 0.00 0.00 0.00 75 1010.5
20260506223037 54 259 0.0 0.0 0.00 0.00 0.00 76 1010.5
20260506221536 54 230 0.0 0.0 0.00 0.00 0.00 76 1010.4
20260506220039 54 219 0.0 0.0 0.00 0.00 0.00 76 1010.1
20260506214531 54 247 0.0 0.0 0.00 0.00 0.00 76 1010.0
20260506213032 54 277 0.0 0.0 0.00 0.00 0.00 77 1010.0
20260506211532 55 251 0.0 0.0 0.00 0.00 0.00 76 1009.9
20260506210130 56 237 0.0 0.0 0.00 0.00 0.00 77 1009.8
20260506204527 56 254 0.0 0.0 0.00 0.00 0.00 77 1009.6
20260506203028 56 236 0.0 0.0 0.00 0.00 0.00 77 1009.3
20260506201524 57 291 0.0 0.0 0.00 0.00 0.00 77 1009.0
20260506200123 58 241 0.0 0.0 0.00 0.00 0.00 77 1008.7
20260506194522 58 265 0.0 0.0 0.00 0.00 0.00 77 1008.3
20260506193021 59 293 0.0 0.0 0.00 0.00 0.00 77 1008.1